[Iaude] MPEC V145: 2023 VK4 [a=1.65,e=0.48,i=5.0,H=25.8]
    mpec at marsden.cfa.harvard.edu 
    mpec at marsden.cfa.harvard.edu
       
    Thu Nov  9 13:43:57 EST 2023
    
    
  
M.P.E.C. 2023-V145                             Issued 2023 November 9, 18:42 UT
     The Minor Planet Electronic Circulars contain information on unusual
         minor planets, routine data on comets and natural satellites,
         and occasional editorial announcements.  They are published
    on behalf of Division F of the International Astronomical Union by the
          Minor Planet Center, Smithsonian Astrophysical Observatory,
                          Cambridge, MA 02138, U.S.A.
			  
             Prepared using the Tamkin Foundation Computer Network
                              MPC at CFA.HARVARD.EDU
            URL https://www.minorplanetcenter.net/    ISSN 1523-6714
                                    2023 VK4                                    
Observations:
     K23V04K  C2023 11 04.40262 03 32 57.76 +17 04 31.4          21.4 GVEV145G96
     K23V04K  C2023 11 04.41286 03 32 59.79 +17 05 08.7          21.1 GVEV145G96
     K23V04K* C2023 11 08.55009103 55 04.092+22 53 29.80         21.02wXEV145F51
     K23V04K  C2023 11 08.56303003 55 09.386+22 54 56.53         21.02wXEV145F51
     K23V04K  C2023 11 08.57592803 55 14.692+22 56 22.64         20.57wXEV145F51
     K23V04K IC2023 11 08.83281703 57 25.90 +23 25 29.2          20.6 GVEV145L01
     K23V04K KC2023 11 08.83618203 57 27.53 +23 25 53.1          20.8 GVEV145L01
     K23V04K KC2023 11 08.84330003 57 30.81 +23 26 45.9          21.0 GVEV145L01
     K23V04K KC2023 11 08.84763503 57 32.78 +23 27 17.6          20.7 GVEV145L01
     K23V04K mC2023 11 09.27021404 01 04.188+24 20 28.64         20.74GVEV145I52
     K23V04K mC2023 11 09.27076504 01 04.397+24 20 32.86         21.03GVEV145I52
     K23V04K mC2023 11 09.27131704 01 04.656+24 20 37.28         20.60GVEV145I52
     K23V04K mC2023 11 09.27187804 01 04.872+24 20 41.32               VEV145I52
Observer details:
F51 Pan-STARRS 1, Haleakala.  Observers J. Bulger, T. Lowe, P. Minguez, A.
    Schultz, I. Smith.  Measurers K. Chambers, T. de Boer, J. Fairlamb, H.
    Gao, M. Huber, C.-C. Lin, E. Magnier, Y. Ramanjooloo, R. Wainscoat, R.
    Weryk.  1.8-m Ritchey-Chretien + CCD.
G96 Mt. Lemmon Survey.  Observer J. B. Fazekas.  Measurers B. Gray, D. Rankin,
    F. C. Shelly.  1.5-m reflector + 10K CCD.
I52 Steward Observatory, Mt. Lemmon Station.  Observer H. Groeller.  Measurers
    E. C. Beshore, D. Fay, J. B. Fazekas, D. C. Fuls, A. R. Gibbs, A. D.
    Grauer, H. Groeller, J. K. Hogan, R. A. Kowalski, S. M. Larson, G. J.
    Leonard, D. Rankin, R. L. Seaman, F. C. Shelly, K. W. Wierzchos.  1.0-m
    prime focus + CCD.
L01 Visnjan Observatory, Tican.  Observer K. Korlevic.  1.0-m f/2.9 reflector
    + CCD.
Orbital elements:
2023 VK4                                                 Earth MOID = 0.0192 AU
Epoch 2023 Sept. 13.0 TT = JDT 2460200.5                MPC                     
M 310.18694              (2000.0)            P               Q                  
n   0.46473849     Peri.   68.11064     -0.38534660     -0.92075069             
a   1.6506828      Node    44.70757     +0.81137067     -0.36959228             
e   0.4834547      Incl.    4.97786     +0.43952888     -0.12497885             
P   2.12           H   25.83          G   0.15           U   8                  
Residuals in seconds of arc
231104 G96  0.1-  0.1-    231108 L01  0.9-  0.5+    231109 I52  0.1+  0.1+
231104 G96  0.1+  0.1+    231108 L01  0.2+  0.4-    231109 I52  0.0   0.2+
231108 F51  0.1+  0.1+    231108 L01  0.4+  0.1-    231109 I52  0.7-  0.2-
231108 F51  0.1+  0.1+    231108 L01  0.2+  0.3-
231108 F51  0.1-  0.2-    231109 I52  0.8+  0.3+
Ephemeris:
2023 VK4                 a,e,i = 1.65, 0.48, 5                   q = 0.8527
Date    TT    R. A. (2000) Decl.     Delta      r    Elong.  Phase     V
2023 10 10    02 53 24.1 +08 08 19   0.3008  1.2716   151.7    21.9    24.8
...
2023 10 25    03 09 39.5 +10 58 47   0.1741  1.1613   161.8    15.5    23.2
...
2023 11 02    03 25 12.9 +14 58 35   0.1146  1.1039   165.8    12.8    22.1
...
2023 11 08    03 51 11.5 +21 53 25   0.07384 1.0623   164.5    14.4    21.1
2023 11 09    03 58 41.7 +23 46 44   0.06750 1.0556   163.3    15.7    21.0
2023 11 10    04 07 57.4 +26 00 56   0.06136 1.0488   161.4    17.5    20.8
...
2023 11 16    06 56 58.7 +49 01 11   0.03336 1.0098   127.5    51.0    20.4
...
2023 11 24    13 12 04.6 +24 58 20   0.05383 0.9619    60.3   116.9    24.0
...
2023 12 09    14 21 45.0 +05 28 17   0.1509  0.8911    48.0   124.8    26.7
A. U. Tomatic                (C) Copyright 2023 MPC           M.P.E.C. 2023-V145
    
    
More information about the Iaude
mailing list